Regional Weather Roundup
Issued by NWS

Home | Current Version | Previous Version | Graphics & Text | Print | Product List | Glossary On
Versions: 1 2 3 4 5 6 7 8 9 10 11 12 13 14 15 16 17 18 19 20 21 22 23 24 25 26 27 28 29 30 31 32 33 34 35 36 37 38 39 40 41 42 43 44 45 46 47 48 49 50
000
ASUS43 KIND 010459
RWRIN

WEATHER ROUNDUP FOR INDIANA
NATIONAL WEATHER SERVICE INDIANAPOLIS IN
100 AM EDT MON SEP 01 2014

NOTE: "FAIR" INDICATES FEW OR NO CLOUDS BELOW 12,000 FEET WITH NO
SIGNIFICANT WEATHER AND/OR OBSTRUCTIONS TO VISIBILITY.

* - STATION DOES NOT REPORT WEATHER SUCH AS PRECIPITATION OR FOG.

+ - STATION NOT QUALITY CONTROLLED BY THE NATIONAL WEATHER SERVICE.
    USE DATA WITH CAUTION...ESPECIALLY DEWPOINT AND RELATIVE
    HUMIDITY OBSERVATIONS.

INZ001>003-010>013-019-020-010600-
NORTHWEST INDIANA

CITY           SKY/WX    TMP DP  RH WIND       PRES   REMARKS
KNOX *+        PTCLDY    71  68  90 S6        29.92S
MONTICELLO +   PTCLDY    73  71  94 S5        29.93S
VALPARAISO     CLEAR     71  69  93 S6        29.92S

$$

LMZ046-743>745-010600-
SOUTHERN LAKE MICHIGAN

STATION/POSITION TIME  TEMP WIND        PRES
                       AIR  DIR/SP/G
                 (UTC) (F)  (DEG/KT/KT) (MB)
MICHIGAN CITY    0400   74  150/  8/ 13   N/A

$$

INZ004-005-014>016-021>024-010600-
NORTH CENTRAL INDIANA

CITY           SKY/WX    TMP DP  RH WIND       PRES   REMARKS
GOSHEN         MOCLDY    73  69  87 S7        29.94R
SOUTH BEND     MOCLDY    73  69  87 S6        29.93R

$$

INZ006>009-017-018-025>027-010600-
NORTHEAST INDIANA

CITY           SKY/WX    TMP DP  RH WIND       PRES   REMARKS
ANGOLA *+      CLEAR     70  61  73 SW5       29.95R
FORT WAYNE     PTCLDY    71  69  93 SW8       29.97R

$$

INZ028-029-035-036-043>045-051>053-010600-
WEST CENTRAL INDIANA

CITY           SKY/WX    TMP DP  RH WIND       PRES   REMARKS
GREENCASTLE +  PTCLDY    72  70  94 CALM      29.98R
LAFAYETTE      PTCLDY    73  70  90 S7        29.93S
TERRE HAUTE    PTCLDY    72  70  93 S5        29.96S

$$

INZ030>032-037>040-046>048-054>057-064-065-010600-
CENTRAL INDIANA

CITY           SKY/WX    TMP DP  RH WIND       PRES   REMARKS
FRANKFORT +    CLEAR    N/A N/A N/A S5        29.97S
INDIANAPOLIS   PTCLDY    72  69  90 S8        29.97R
-EAGLE CREEK   CLEAR     73  68  84 S3        29.97R
KOKOMO *+      PTCLDY    70  66  88 S6        29.97R
MT COMFORT *+  CLEAR     72 N/A N/A S5        29.99R
SHELBYVILLE    CLEAR     73  70  90 S8        29.98R

$$

INZ033-034-041-042-049-050-058-059-010600-
EAST CENTRAL INDIANA

CITY           SKY/WX    TMP DP  RH WIND       PRES   REMARKS
MUNCIE         CLEAR     72  68  87 S7        29.98R

$$

INZ060-061-067>069-081>083-085>088-010600-
SOUTHWEST INDIANA

CITY           SKY/WX    TMP DP  RH WIND       PRES   REMARKS
EVANSVILLE     CLEAR     76  71  85 S6        29.97R

$$

INZ062-063-066-070>080-084-089>092-010600-
SOUTH CENTRAL AND SOUTHEAST INDIANA

CITY           SKY/WX    TMP DP  RH WIND       PRES   REMARKS
BLOOMINGTON    PTCLDY    71  69  93 S6        29.99R

$$




USA.gov is the U.S. government's official web portal to all federal, state and local government web resources and services.